TimePST,TemperatureF,Dew PointF,Humidity,Sea Level PressureIn,VisibilityMPH,Wind Direction,Wind SpeedMPH,Gust SpeedMPH,PrecipitationIn,Events,Conditions,WindDirDegrees,DateUTC
12:53 AM,51.1,45.0,80,30.04,10.0,SW,5.8,-,N/A,,Mostly Cloudy,230,2012-12-16 08:53:00
1:53 AM,50.0,44.1,80,30.05,10.0,Calm,Calm,-,N/A,,Clear,0,2012-12-16 09:53:00
2:53 AM,48.9,43.0,80,30.04,10.0,Calm,Calm,-,N/A,,Overcast,0,2012-12-16 10:53:00
3:53 AM,48.9,43.0,80,30.05,10.0,Calm,Calm,-,N/A,,Clear,0,2012-12-16 11:53:00
4:53 AM,46.9,43.0,86,30.06,10.0,Calm,Calm,-,N/A,,Clear,0,2012-12-16 12:53:00
5:53 AM,46.0,42.1,86,30.08,10.0,Calm,Calm,-,N/A,,Clear,0,2012-12-16 13:53:00
6:53 AM,48.0,41.0,77,30.09,10.0,WSW,3.5,-,N/A,,Clear,250,2012-12-16 14:53:00
7:53 AM,50.0,41.0,71,30.13,10.0,Calm,Calm,-,N/A,,Scattered Clouds,0,2012-12-16 15:53:00
8:53 AM,53.1,42.1,66,30.14,10.0,South,3.5,-,N/A,,Scattered Clouds,190,2012-12-16 16:53:00
9:53 AM,55.9,39.9,55,30.14,10.0,Calm,Calm,-,N/A,,Scattered Clouds,0,2012-12-16 17:53:00
10:53 AM,59.0,37.9,46,30.13,10.0,Calm,Calm,-,N/A,,Scattered Clouds,0,2012-12-16 18:53:00
11:53 AM,60.1,37.9,44,30.11,10.0,SSE,8.1,-,N/A,,Scattered Clouds,150,2012-12-16 19:53:00
12:53 PM,61.0,37.0,41,30.09,10.0,SE,10.4,-,N/A,,Scattered Clouds,140,2012-12-16 20:53:00
1:53 PM,62.1,37.9,41,30.06,10.0,SE,8.1,-,N/A,,Mostly Cloudy,130,2012-12-16 21:53:00
2:53 PM,63.0,37.0,38,30.06,10.0,SE,8.1,-,N/A,,Mostly Cloudy,140,2012-12-16 22:53:00
3:53 PM,61.0,37.9,42,30.06,10.0,SE,6.9,-,N/A,,Mostly Cloudy,130,2012-12-16 23:53:00
4:53 PM,59.0,39.0,48,30.07,10.0,ESE,6.9,-,N/A,,Scattered Clouds,110,2012-12-17 00:53:00
5:53 PM,55.9,41.0,57,30.09,10.0,SE,4.6,-,N/A,,Mostly Cloudy,130,2012-12-17 01:53:00
6:53 PM,55.9,41.0,57,30.12,10.0,East,3.5,-,N/A,,Overcast,100,2012-12-17 02:53:00
7:53 PM,55.0,42.1,62,30.13,10.0,Calm,Calm,-,N/A,,Mostly Cloudy,0,2012-12-17 03:53:00
8:53 PM,54.0,42.1,64,30.14,10.0,WSW,3.5,-,N/A,,Mostly Cloudy,240,2012-12-17 04:53:00
10:53 PM,51.1,41.0,68,30.14,10.0,WSW,4.6,-,N/A,,Clear,240,2012-12-17 06:53:00
11:53 PM,51.1,39.9,66,30.14,10.0,WSW,3.5,-,N/A,,Overcast,250,2012-12-17 07:53:00